Location: Newark
(42.1667°N, 14.5667°E)
Time: 21:06:31
(UTC+00:00)

Envisat - Pass Details

Date: 24 January 2020
Orbit: 764 x 766 km, 98.1° (Epoch: 23 February)

Event Time Altitude Azimuth Distance (km) Brightness Sun altitude
Rises 18:04:14 0° 207° (SSW) 3,220 6.7 -21.9°
Reaches altitude 10° 18:07:14 10° 226° (SW) 2,299 6.2 -22.5°
Maximum altitude 18:10:39 18° 269° (W) 1,805 5.8 -23.1°
Drops below altitude 10° 18:14:07 10° 312° (NW) 2,310 6.0 -23.8°
Sets 18:17:10 0° 331° (NNW) 3,242 6.6 -24.3°
